Regional Weather Roundup
Issued by NWS

Home | Current Version | Previous Version | Graphics & Text | Print | Product List | Glossary On
Versions: 1 2 3 4 5 6 7 8 9 10 11 12 13 14 15 16 17 18 19 20 21 22 23 24 25 26 27 28 29 30 31 32 33 34 35 36 37 38 39 40 41 42 43 44 45 46 47 48 49 50
969
ASUS44 KLIX 180807
RWRLA
LOUISIANA WEATHER ROUNDUP
NATIONAL WEATHER SERVICE NEW ORLEANS LA
300 AM CDT SAT APR 18 2015

NOTE: "FAIR" INDICATES FEW OR NO CLOUDS BELOW 12,000 FEET WITH NO
      SIGNIFICANT WEATHER AND/OR OBSTRUCTIONS TO VISIBILITY.
      SKY/WX - SKY CONDITION AND SIGNIFICANT WEATHER.
      TMP - AIR TEMPERATURE.    DP   - DEWPOINT TEMPERATURE.
      RH  - RELATIVE HUMIDITY.  PRES - PRESSURE.
      HX  - HEAT INDEX.         WCI  - WIND CHILL INDEX.

*  THESE STATIONS ARE NOT NWS OR FAA STATIONS AND ARE NOT UNDER
   NWS QUALITY CONTROL.

LAZ040-048-061>063-065-066-069-180900-
SOUTHEAST LOUISIANA

CITY           SKY/WX    TMP DP  RH WIND       PRES   REMARKS
N.O. AUDUBON     N/A     73  73 100 MISG        N/A
N.O. INTL ARPT TSTM      74  70  87 NW3       29.91S
N.O. LAKEFRONT LGT RAIN  78  72  81 W13       29.92S
SLIDELL        CLOUDY    71  71 100 N3        29.91F
BATON ROUGE    LGT RAIN  70  68  93 VRB6      29.91F FOG
BOOTHVILLE     CLOUDY    72  70  93 SE3       29.91F
BELLE CHASSE   CLOUDY    72  70  93 CALM      29.91S
BOGALUSA*        N/A     69  65  89 CALM      29.95R
GALLIANO*      CLOUDY    73  71  95 CALM      29.89F
NEW ROADS*     CLOUDY    69  68  95 N3G23     29.92F
GONZALES*      LGT RAIN  71  71 100 N5G17     29.89F
HAMMOND*       LGT RAIN  70  66  88 N3        29.94F
HOUMA*         TSTM      72  71  97 NW6       29.89F
PORT FOURCHON* CLOUDY    75  72  88 SE9       29.91F

$$

LAZ041-044-053-054-180900-
SOUTHWEST LOUISIANA

CITY           SKY/WX    TMP DP  RH WIND       PRES   REMARKS
LAKE CHARLES   RAIN      68  67  96 E8        29.90F FOG
LAFAYETTE      LGT RAIN  72  70  93 CALM      29.91F
PATTERSON      CLOUDY    70  68  94 CALM      29.93R
SALT POINT       N/A     70  69  97 SE3       29.91F
NEW IBERIA     LGT RAIN  71  68  90 NE5       29.92F
CHENAULT AIRPK RAIN      67  66  98 CALM      29.92F

$$

LAZ027-028-180900-
CENTRAL LOUISIANA

CITY           SKY/WX    TMP DP  RH WIND       PRES   REMARKS
FORT POLK      CLOUDY    68  66  94 SE7       29.89F
ALEXANDRIA INT LGT RAIN  69  69 100 CALM      29.92F
ALEXANDRIA     LGT RAIN  68  67  96 CALM      29.94F

$$

LAZ001-002-180900-
NORTHWEST LOUISIANA

CITY           SKY/WX    TMP DP  RH WIND       PRES   REMARKS
SHREVEPORT     LGT RAIN  69  66  90 E3        29.91F
BARKSDALE AFB  CLOUDY    68  66  94 SE5       29.92F
DTN SHREVEPORT CLOUDY    69  64  84 E6        29.92F

$$

LAZ014-016-180900-
NORTHEAST LOUISIANA

CITY           SKY/WX    TMP DP  RH WIND       PRES   REMARKS
MONROE         CLOUDY    67  64  90 CALM      29.95R
TALLULAH       CLOUDY    67  65  93 E3        29.94S

$$




USA.gov is the U.S. government's official web portal to all federal, state and local government web resources and services.